owner,sensor,date,latitude,longitude,sea_surface_height_above_sea_level,qcFlag 
COMPS,ioos:station:USF.COMPS:ARP:1,2009-07-02T13:00:00Z,28.4330,-82.6670,0.551,1111122 
COMPS,ioos:station:USF.COMPS:ARP:1,2009-07-02T13:06:00Z,28.4330,-82.6670,0.554,1111122 
COMPS,ioos:station:USF.COMPS:ARP:1,2009-07-02T13:12:00Z,28.4330,-82.6670,0.559,1111122 
COMPS,ioos:station:USF.COMPS:ARP:1,2009-07-02T13:18:00Z,28.4330,-82.6670,0.561,1111122 
COMPS,ioos:station:USF.COMPS:ARP:1,2009-07-02T13:24:00Z,28.4330,-82.6670,0.561,1111122 
COMPS,ioos:station:USF.COMPS:ARP:1,2009-07-02T13:30:00Z,28.4330,-82.6670,0.56,1111122 
COMPS,ioos:station:USF.COMPS:ARP:1,2009-07-02T13:36:00Z,28.4330,-82.6670,0.552,1111122 
COMPS,ioos:station:USF.COMPS:ARP:1,2009-07-02T13:42:00Z,28.4330,-82.6670,0.548,1111122 
COMPS,ioos:station:USF.COMPS:ARP:1,2009-07-02T13:48:00Z,28.4330,-82.6670,0.545,1111122 
COMPS,ioos:station:USF.COMPS:ARP:1,2009-07-02T13:54:00Z,28.4330,-82.6670,0.54,1111122 
COMPS,ioos:station:USF.COMPS:ARP:1,2009-07-02T14:00:00Z,28.4330,-82.6670,0.526,1111122 
COMPS,ioos:station:USF.COMPS:ARP:1,2009-07-02T14:06:00Z,28.4330,-82.6670,0.516,1111122 
COMPS,ioos:station:USF.COMPS:ARP:1,2009-07-02T14:12:00Z,28.4330,-82.6670,0.509,1111122 
COMPS,ioos:station:USF.COMPS:ARP:1,2009-07-02T14:18:00Z,28.4330,-82.6670,0.501,1111122 
COMPS,ioos:station:USF.COMPS:ARP:1,2009-07-02T14:24:00Z,28.4330,-82.6670,0.495,1111122 
COMPS,ioos:station:USF.COMPS:ARP:1,2009-07-02T14:30:00Z,28.4330,-82.6670,0.489,1111122 
COMPS,ioos:station:USF.COMPS:ARP:1,2009-07-02T14:36:00Z,28.4330,-82.6670,0.486,1111122 
COMPS,ioos:station:USF.COMPS:ARP:1,2009-07-02T14:42:00Z,28.4330,-82.6670,0.48,1111122 
COMPS,ioos:station:USF.COMPS:ARP:1,2009-07-02T14:48:00Z,28.4330,-82.6670,0.489,1111122 
COMPS,ioos:station:USF.COMPS:ARP:1,2009-07-02T14:54:00Z,28.4330,-82.6670,0.486,1111122 
COMPS,ioos:station:USF.COMPS:ARP:1,2009-07-02T15:00:00Z,28.4330,-82.6670,0.474,1111122 
COMPS,ioos:station:USF.COMPS:ARP:1,2009-07-02T15:06:00Z,28.4330,-82.6670,0.446,1111122 
COMPS,ioos:station:USF.COMPS:ARP:1,2009-07-02T15:12:00Z,28.4330,-82.6670,0.429,1111122 
COMPS,ioos:station:USF.COMPS:ARP:1,2009-07-02T15:18:00Z,28.4330,-82.6670,0.413,1111122 
COMPS,ioos:station:USF.COMPS:ARP:1,2009-07-02T15:24:00Z,28.4330,-82.6670,0.399,1111122 
COMPS,ioos:station:USF.COMPS:ARP:1,2009-07-02T15:30:00Z,28.4330,-82.6670,0.395,1111122 
COMPS,ioos:station:USF.COMPS:ARP:1,2009-07-02T15:36:00Z,28.4330,-82.6670,0.4,1111122 
COMPS,ioos:station:USF.COMPS:ARP:1,2009-07-02T15:42:00Z,28.4330,-82.6670,0.398,1111122 
COMPS,ioos:station:USF.COMPS:ARP:1,2009-07-02T15:48:00Z,28.4330,-82.6670,0.407,1111122 
COMPS,ioos:station:USF.COMPS:ARP:1,2009-07-02T15:54:00Z,28.4330,-82.6670,0.395,1111122 
COMPS,ioos:station:USF.COMPS:ARP:1,2009-07-02T16:00:00Z,28.4330,-82.6670,0.388,1111122 
COMPS,ioos:station:USF.COMPS:ARP:1,2009-07-02T16:06:00Z,28.4330,-82.6670,0.387,1111122 
COMPS,ioos:station:USF.COMPS:ARP:1,2009-07-02T16:12:00Z,28.4330,-82.6670,0.365,1111122 
COMPS,ioos:station:USF.COMPS:ARP:1,2009-07-02T16:18:00Z,28.4330,-82.6670,0.339,1111122 
COMPS,ioos:station:USF.COMPS:ARP:1,2009-07-02T16:24:00Z,28.4330,-82.6670,0.32,1111122 
COMPS,ioos:station:USF.COMPS:ARP:1,2009-07-02T16:30:00Z,28.4330,-82.6670,0.304,1111122 
COMPS,ioos:station:USF.COMPS:ARP:1,2009-07-02T16:36:00Z,28.4330,-82.6670,0.289,1111122 
COMPS,ioos:station:USF.COMPS:ARP:1,2009-07-02T16:42:00Z,28.4330,-82.6670,0.274,1111122 
COMPS,ioos:station:USF.COMPS:ARP:1,2009-07-02T16:48:00Z,28.4330,-82.6670,0.256,1111122 
COMPS,ioos:station:USF.COMPS:ARP:1,2009-07-02T16:54:00Z,28.4330,-82.6670,0.238,1111122 
COMPS,ioos:station:USF.COMPS:ARP:1,2009-07-02T17:00:00Z,28.4330,-82.6670,0.219,1111122 
COMPS,ioos:station:USF.COMPS:ARP:1,2009-07-02T17:06:00Z,28.4330,-82.6670,0.199,1111122 
COMPS,ioos:station:USF.COMPS:ARP:1,2009-07-02T17:12:00Z,28.4330,-82.6670,0.183,1111122 
COMPS,ioos:station:USF.COMPS:ARP:1,2009-07-02T17:18:00Z,28.4330,-82.6670,0.169,1111122 
COMPS,ioos:station:USF.COMPS:ARP:1,2009-07-02T17:24:00Z,28.4330,-82.6670,0.153,1111122 
COMPS,ioos:station:USF.COMPS:ARP:1,2009-07-02T17:30:00Z,28.4330,-82.6670,0.138,1111122 
COMPS,ioos:station:USF.COMPS:ARP:1,2009-07-02T17:36:00Z,28.4330,-82.6670,0.123,1111122 
COMPS,ioos:station:USF.COMPS:ARP:1,2009-07-02T17:42:00Z,28.4330,-82.6670,0.109,1111122 
COMPS,ioos:station:USF.COMPS:ARP:1,2009-07-02T17:48:00Z,28.4330,-82.6670,0.102,1111122 
COMPS,ioos:station:USF.COMPS:ARP:1,2009-07-02T17:54:00Z,28.4330,-82.6670,0.091,1111122 
COMPS,ioos:station:USF.COMPS:ARP:1,2009-07-02T18:00:00Z,28.4330,-82.6670,0.074,1111122 
COMPS,ioos:station:USF.COMPS:ARP:1,2009-07-02T18:06:00Z,28.4330,-82.6670,0.057,1111122 
COMPS,ioos:station:USF.COMPS:ARP:1,2009-07-02T18:12:00Z,28.4330,-82.6670,0.037,1111122 
COMPS,ioos:station:USF.COMPS:ARP:1,2009-07-02T18:18:00Z,28.4330,-82.6670,0.016,1111122 
COMPS,ioos:station:USF.COMPS:ARP:1,2009-07-02T18:24:00Z,28.4330,-82.6670,-0.004,1111122 
COMPS,ioos:station:USF.COMPS:ARP:1,2009-07-02T18:30:00Z,28.4330,-82.6670,-0.022,1111122 
COMPS,ioos:station:USF.COMPS:ARP:1,2009-07-02T18:36:00Z,28.4330,-82.6670,-0.04,1111122 
COMPS,ioos:station:USF.COMPS:ARP:1,2009-07-02T18:42:00Z,28.4330,-82.6670,-0.057,1111122 
COMPS,ioos:station:USF.COMPS:ARP:1,2009-07-02T18:48:00Z,28.4330,-82.6670,-0.07,1111122 
COMPS,ioos:station:USF.COMPS:ARP:1,2009-07-02T18:54:00Z,28.4330,-82.6670,-0.081,1111122 
COMPS,ioos:station:USF.COMPS:ARP:1,2009-07-02T19:00:00Z,28.4330,-82.6670,-0.098,1111122 
COMPS,ioos:station:USF.COMPS:ARP:1,2009-07-02T19:06:00Z,28.4330,-82.6670,-0.115,1111122 
COMPS,ioos:station:USF.COMPS:ARP:1,2009-07-02T19:12:00Z,28.4330,-82.6670,-0.127,1111122 
COMPS,ioos:station:USF.COMPS:ARP:1,2009-07-02T19:18:00Z,28.4330,-82.6670,-0.142,1111122 
COMPS,ioos:station:USF.COMPS:ARP:1,2009-07-02T19:24:00Z,28.4330,-82.6670,-0.159,1111122 
COMPS,ioos:station:USF.COMPS:ARP:1,2009-07-02T19:30:00Z,28.4330,-82.6670,-0.174,1111122 
COMPS,ioos:station:USF.COMPS:ARP:1,2009-07-02T19:36:00Z,28.4330,-82.6670,-0.187,1111122 
COMPS,ioos:station:USF.COMPS:ARP:1,2009-07-02T19:42:00Z,28.4330,-82.6670,-0.201,1111122 
COMPS,ioos:station:USF.COMPS:ARP:1,2009-07-02T19:48:00Z,28.4330,-82.6670,-0.213,1111122 
COMPS,ioos:station:USF.COMPS:ARP:1,2009-07-02T19:54:00Z,28.4330,-82.6670,-0.223,1111122 
COMPS,ioos:station:USF.COMPS:ARP:1,2009-07-02T20:00:00Z,28.4330,-82.6670,-0.234,1111122 
COMPS,ioos:station:USF.COMPS:ARP:1,2009-07-02T20:06:00Z,28.4330,-82.6670,-0.242,1111122 
COMPS,ioos:station:USF.COMPS:ARP:1,2009-07-02T20:12:00Z,28.4330,-82.6670,-0.248,1111122 
COMPS,ioos:station:USF.COMPS:ARP:1,2009-07-02T20:18:00Z,28.4330,-82.6670,-0.255,1111122 
COMPS,ioos:station:USF.COMPS:ARP:1,2009-07-02T20:24:00Z,28.4330,-82.6670,-0.262,1111122 
COMPS,ioos:station:USF.COMPS:ARP:1,2009-07-02T20:30:00Z,28.4330,-82.6670,-0.272,1111122 
COMPS,ioos:station:USF.COMPS:ARP:1,2009-07-02T20:36:00Z,28.4330,-82.6670,-0.284,1111122 
COMPS,ioos:station:USF.COMPS:ARP:1,2009-07-02T20:42:00Z,28.4330,-82.6670,-0.297,1111122 
COMPS,ioos:station:USF.COMPS:ARP:1,2009-07-02T20:48:00Z,28.4330,-82.6670,-0.309,1111122 
COMPS,ioos:station:USF.COMPS:ARP:1,2009-07-02T20:54:00Z,28.4330,-82.6670,-0.321,1111122 
COMPS,ioos:station:USF.COMPS:ARP:1,2009-07-02T21:00:00Z,28.4330,-82.6670,-0.329,1111122 
COMPS,ioos:station:USF.COMPS:ARP:1,2009-07-02T21:06:00Z,28.4330,-82.6670,-0.339,1111122 
COMPS,ioos:station:USF.COMPS:ARP:1,2009-07-02T21:12:00Z,28.4330,-82.6670,-0.349,1111122 
COMPS,ioos:station:USF.COMPS:ARP:1,2009-07-02T21:18:00Z,28.4330,-82.6670,-0.357,1111122 
COMPS,ioos:station:USF.COMPS:ARP:1,2009-07-02T21:24:00Z,28.4330,-82.6670,-0.367,1111122 
COMPS,ioos:station:USF.COMPS:ARP:1,2009-07-02T21:30:00Z,28.4330,-82.6670,-0.375,1111122 
COMPS,ioos:station:USF.COMPS:ARP:1,2009-07-02T21:36:00Z,28.4330,-82.6670,-0.383,1111122 
COMPS,ioos:station:USF.COMPS:ARP:1,2009-07-02T21:42:00Z,28.4330,-82.6670,-0.391,1111122 
COMPS,ioos:station:USF.COMPS:ARP:1,2009-07-02T21:48:00Z,28.4330,-82.6670,-0.399,1111122 
COMPS,ioos:station:USF.COMPS:ARP:1,2009-07-02T21:54:00Z,28.4330,-82.6670,-0.402,1111122 
COMPS,ioos:station:USF.COMPS:ARP:1,2009-07-02T22:00:00Z,28.4330,-82.6670,-0.395,1111122 
COMPS,ioos:station:USF.COMPS:ARP:1,2009-07-02T22:06:00Z,28.4330,-82.6670,-0.391,1111122 
COMPS,ioos:station:USF.COMPS:ARP:1,2009-07-02T22:12:00Z,28.4330,-82.6670,-0.388,1111122 
COMPS,ioos:station:USF.COMPS:ARP:1,2009-07-02T22:18:00Z,28.4330,-82.6670,-0.382,1111122 
COMPS,ioos:station:USF.COMPS:ARP:1,2009-07-02T22:24:00Z,28.4330,-82.6670,-0.373,1111122 
COMPS,ioos:station:USF.COMPS:ARP:1,2009-07-02T22:30:00Z,28.4330,-82.6670,-0.372,1111122 
COMPS,ioos:station:USF.COMPS:ARP:1,2009-07-02T22:36:00Z,28.4330,-82.6670,-0.373,1111122 
COMPS,ioos:station:USF.COMPS:ARP:1,2009-07-02T22:42:00Z,28.4330,-82.6670,-0.372,1111122 
COMPS,ioos:station:USF.COMPS:ARP:1,2009-07-02T22:48:00Z,28.4330,-82.6670,-0.371,1111122 
COMPS,ioos:station:USF.COMPS:ARP:1,2009-07-02T22:54:00Z,28.4330,-82.6670,-0.378,1111122 
COMPS,ioos:station:USF.COMPS:ARP:1,2009-07-02T23:00:00Z,28.4330,-82.6670,-0.375,1111122 
COMPS,ioos:station:USF.COMPS:ARP:1,2009-07-02T23:06:00Z,28.4330,-82.6670,-0.368,1111122 
COMPS,ioos:station:USF.COMPS:ARP:1,2009-07-02T23:12:00Z,28.4330,-82.6670,-0.364,1111122 
COMPS,ioos:station:USF.COMPS:ARP:1,2009-07-02T23:18:00Z,28.4330,-82.6670,-0.355,1111122 
COMPS,ioos:station:USF.COMPS:ARP:1,2009-07-02T23:24:00Z,28.4330,-82.6670,-0.343,1111122 
COMPS,ioos:station:USF.COMPS:ARP:1,2009-07-02T23:30:00Z,28.4330,-82.6670,-0.331,1111122 
COMPS,ioos:station:USF.COMPS:ARP:1,2009-07-02T23:36:00Z,28.4330,-82.6670,-0.319,1111122 
COMPS,ioos:station:USF.COMPS:ARP:1,2009-07-02T23:42:00Z,28.4330,-82.6670,-0.305,1111122 
COMPS,ioos:station:USF.COMPS:ARP:1,2009-07-02T23:48:00Z,28.4330,-82.6670,-0.291,1111122 
COMPS,ioos:station:USF.COMPS:ARP:1,2009-07-02T23:54:00Z,28.4330,-82.6670,-0.275,1111122 
COMPS,ioos:station:USF.COMPS:ARP:1,2009-07-03T00:00:00Z,28.4330,-82.6670,-0.259,1111122 
COMPS,ioos:station:USF.COMPS:ARP:1,2009-07-03T00:06:00Z,28.4330,-82.6670,-0.242,1111122 
COMPS,ioos:station:USF.COMPS:ARP:1,2009-07-03T00:12:00Z,28.4330,-82.6670,-0.224,1111122 
COMPS,ioos:station:USF.COMPS:ARP:1,2009-07-03T00:18:00Z,28.4330,-82.6670,-0.207,1111122 
COMPS,ioos:station:USF.COMPS:ARP:1,2009-07-03T00:24:00Z,28.4330,-82.6670,-0.188,1111122 
COMPS,ioos:station:USF.COMPS:ARP:1,2009-07-03T00:30:00Z,28.4330,-82.6670,-0.17,1111122 
COMPS,ioos:station:USF.COMPS:ARP:1,2009-07-03T00:36:00Z,28.4330,-82.6670,-0.152,1111122 
COMPS,ioos:station:USF.COMPS:ARP:1,2009-07-03T00:42:00Z,28.4330,-82.6670,-0.133,1111122 
COMPS,ioos:station:USF.COMPS:ARP:1,2009-07-03T00:48:00Z,28.4330,-82.6670,-0.114,1111122 
COMPS,ioos:station:USF.COMPS:ARP:1,2009-07-03T00:54:00Z,28.4330,-82.6670,-0.096,1111122 
COMPS,ioos:station:USF.COMPS:ARP:1,2009-07-03T12:00:00Z,28.4330,-82.6670,0.411,1111122 
COMPS,ioos:station:USF.COMPS:ARP:1,2009-07-03T12:06:00Z,28.4330,-82.6670,0.425,1111122 
COMPS,ioos:station:USF.COMPS:ARP:1,2009-07-03T12:12:00Z,28.4330,-82.6670,0.431,1111122 
COMPS,ioos:station:USF.COMPS:ARP:1,2009-07-03T12:18:00Z,28.4330,-82.6670,0.441,1111122 
COMPS,ioos:station:USF.COMPS:ARP:1,2009-07-03T12:24:00Z,28.4330,-82.6670,0.457,1111122 
COMPS,ioos:station:USF.COMPS:ARP:1,2009-07-03T12:30:00Z,28.4330,-82.6670,0.467,1111122 
COMPS,ioos:station:USF.COMPS:ARP:1,2009-07-03T12:36:00Z,28.4330,-82.6670,0.472,1111122 
COMPS,ioos:station:USF.COMPS:ARP:1,2009-07-03T12:42:00Z,28.4330,-82.6670,0.477,1111122 
COMPS,ioos:station:USF.COMPS:ARP:1,2009-07-03T12:48:00Z,28.4330,-82.6670,0.485,1111122 
COMPS,ioos:station:USF.COMPS:ARP:1,2009-07-03T12:54:00Z,28.4330,-82.6670,0.487,1111122 
COMPS,ioos:station:USF.COMPS:ARP:1,2009-07-03T13:00:00Z,28.4330,-82.6670,0.491,1111122 
COMPS,ioos:station:USF.COMPS:ARP:1,2009-07-03T13:06:00Z,28.4330,-82.6670,0.496,1111122 
COMPS,ioos:station:USF.COMPS:ARP:1,2009-07-03T13:12:00Z,28.4330,-82.6670,0.502,1111122 
COMPS,ioos:station:USF.COMPS:ARP:1,2009-07-03T13:18:00Z,28.4330,-82.6670,0.507,1111122 
COMPS,ioos:station:USF.COMPS:ARP:1,2009-07-03T13:24:00Z,28.4330,-82.6670,0.516,1111122 
COMPS,ioos:station:USF.COMPS:ARP:1,2009-07-03T13:30:00Z,28.4330,-82.6670,0.518,1111122 
COMPS,ioos:station:USF.COMPS:ARP:1,2009-07-03T13:36:00Z,28.4330,-82.6670,0.521,1111122 
COMPS,ioos:station:USF.COMPS:ARP:1,2009-07-03T13:42:00Z,28.4330,-82.6670,0.525,1111122 
COMPS,ioos:station:USF.COMPS:ARP:1,2009-07-03T13:48:00Z,28.4330,-82.6670,0.531,1111122 
COMPS,ioos:station:USF.COMPS:ARP:1,2009-07-03T13:54:00Z,28.4330,-82.6670,0.531,1111122 
COMPS,ioos:station:USF.COMPS:ARP:1,2009-07-03T14:00:00Z,28.4330,-82.6670,0.52,1111122 
COMPS,ioos:station:USF.COMPS:ARP:1,2009-07-03T14:06:00Z,28.4330,-82.6670,0.515,1111122 
COMPS,ioos:station:USF.COMPS:ARP:1,2009-07-03T14:12:00Z,28.4330,-82.6670,0.502,1111122 
COMPS,ioos:station:USF.COMPS:ARP:1,2009-07-03T14:18:00Z,28.4330,-82.6670,0.494,1111122 
COMPS,ioos:station:USF.COMPS:ARP:1,2009-07-03T14:24:00Z,28.4330,-82.6670,0.485,1111122 
COMPS,ioos:station:USF.COMPS:ARP:1,2009-07-03T14:30:00Z,28.4330,-82.6670,0.475,1111122 
COMPS,ioos:station:USF.COMPS:ARP:1,2009-07-03T14:36:00Z,28.4330,-82.6670,0.467,1111122 
COMPS,ioos:station:USF.COMPS:ARP:1,2009-07-03T14:42:00Z,28.4330,-82.6670,0.461,1111122 
COMPS,ioos:station:USF.COMPS:ARP:1,2009-07-03T14:48:00Z,28.4330,-82.6670,0.456,1111122 
COMPS,ioos:station:USF.COMPS:ARP:1,2009-07-03T14:54:00Z,28.4330,-82.6670,0.448,1111122 
COMPS,ioos:station:USF.COMPS:ARP:1,2009-07-03T15:00:00Z,28.4330,-82.6670,0.442,1111122 
COMPS,ioos:station:USF.COMPS:ARP:1,2009-07-03T15:06:00Z,28.4330,-82.6670,0.432,1111122 
COMPS,ioos:station:USF.COMPS:ARP:1,2009-07-03T15:12:00Z,28.4330,-82.6670,0.424,1111122 
COMPS,ioos:station:USF.COMPS:ARP:1,2009-07-03T15:18:00Z,28.4330,-82.6670,0.415,1111122 
COMPS,ioos:station:USF.COMPS:ARP:1,2009-07-03T15:24:00Z,28.4330,-82.6670,0.406,1111122 
COMPS,ioos:station:USF.COMPS:ARP:1,2009-07-03T15:30:00Z,28.4330,-82.6670,0.398,1111122 
COMPS,ioos:station:USF.COMPS:ARP:1,2009-07-03T15:36:00Z,28.4330,-82.6670,0.39,1111122 
COMPS,ioos:station:USF.COMPS:ARP:1,2009-07-03T15:42:00Z,28.4330,-82.6670,0.379,1111122 
COMPS,ioos:station:USF.COMPS:ARP:1,2009-07-03T15:48:00Z,28.4330,-82.6670,0.365,1111122 
COMPS,ioos:station:USF.COMPS:ARP:1,2009-07-03T15:54:00Z,28.4330,-82.6670,0.357,1111122 
COMPS,ioos:station:USF.COMPS:ARP:1,2009-07-03T16:00:00Z,28.4330,-82.6670,0.347,1111122 
COMPS,ioos:station:USF.COMPS:ARP:1,2009-07-03T16:06:00Z,28.4330,-82.6670,0.34,1111122 
COMPS,ioos:station:USF.COMPS:ARP:1,2009-07-03T16:12:00Z,28.4330,-82.6670,0.335,1111122 
COMPS,ioos:station:USF.COMPS:ARP:1,2009-07-03T16:18:00Z,28.4330,-82.6670,0.334,1111122 
COMPS,ioos:station:USF.COMPS:ARP:1,2009-07-03T16:24:00Z,28.4330,-82.6670,0.328,1111122 
COMPS,ioos:station:USF.COMPS:ARP:1,2009-07-03T16:30:00Z,28.4330,-82.6670,0.323,1111122 
COMPS,ioos:station:USF.COMPS:ARP:1,2009-07-03T16:36:00Z,28.4330,-82.6670,0.315,1111122 
COMPS,ioos:station:USF.COMPS:ARP:1,2009-07-03T16:42:00Z,28.4330,-82.6670,0.304,1111122 
COMPS,ioos:station:USF.COMPS:ARP:1,2009-07-03T16:48:00Z,28.4330,-82.6670,0.292,1111122 
COMPS,ioos:station:USF.COMPS:ARP:1,2009-07-03T16:54:00Z,28.4330,-82.6670,0.278,1111122 
COMPS,ioos:station:USF.COMPS:ARP:1,2009-07-03T17:00:00Z,28.4330,-82.6670,0.264,1111122 
COMPS,ioos:station:USF.COMPS:ARP:1,2009-07-03T17:06:00Z,28.4330,-82.6670,0.251,1111122 
COMPS,ioos:station:USF.COMPS:ARP:1,2009-07-03T17:12:00Z,28.4330,-82.6670,0.237,1111122 
COMPS,ioos:station:USF.COMPS:ARP:1,2009-07-03T17:18:00Z,28.4330,-82.6670,0.222,1111122 
COMPS,ioos:station:USF.COMPS:ARP:1,2009-07-03T17:24:00Z,28.4330,-82.6670,0.208,1111122 
COMPS,ioos:station:USF.COMPS:ARP:1,2009-07-03T17:30:00Z,28.4330,-82.6670,0.196,1111122 
COMPS,ioos:station:USF.COMPS:ARP:1,2009-07-03T17:36:00Z,28.4330,-82.6670,0.183,1111122 
COMPS,ioos:station:USF.COMPS:ARP:1,2009-07-03T17:42:00Z,28.4330,-82.6670,0.168,1111122 
COMPS,ioos:station:USF.COMPS:ARP:1,2009-07-03T17:48:00Z,28.4330,-82.6670,0.154,1111122 
COMPS,ioos:station:USF.COMPS:ARP:1,2009-07-03T17:54:00Z,28.4330,-82.6670,0.139,1111122 
COMPS,ioos:station:USF.COMPS:ARP:1,2009-07-03T18:00:00Z,28.4330,-82.6670,0.122,1111122 
COMPS,ioos:station:USF.COMPS:ARP:1,2009-07-03T18:06:00Z,28.4330,-82.6670,0.105,1111122 
COMPS,ioos:station:USF.COMPS:ARP:1,2009-07-03T18:12:00Z,28.4330,-82.6670,0.089,1111122 
COMPS,ioos:station:USF.COMPS:ARP:1,2009-07-03T18:18:00Z,28.4330,-82.6670,0.075,1111122 
COMPS,ioos:station:USF.COMPS:ARP:1,2009-07-03T18:24:00Z,28.4330,-82.6670,0.06,1111122 
COMPS,ioos:station:USF.COMPS:ARP:1,2009-07-03T18:30:00Z,28.4330,-82.6670,0.046,1111122 
COMPS,ioos:station:USF.COMPS:ARP:1,2009-07-03T18:36:00Z,28.4330,-82.6670,0.032,1111122 
COMPS,ioos:station:USF.COMPS:ARP:1,2009-07-03T18:42:00Z,28.4330,-82.6670,0.019,1111122 
COMPS,ioos:station:USF.COMPS:ARP:1,2009-07-03T18:48:00Z,28.4330,-82.6670,0.004,1111122 
COMPS,ioos:station:USF.COMPS:ARP:1,2009-07-03T18:54:00Z,28.4330,-82.6670,-0.011,1111122 
COMPS,ioos:station:USF.COMPS:ARP:1,2009-07-03T19:00:00Z,28.4330,-82.6670,-0.023,1111122 
COMPS,ioos:station:USF.COMPS:ARP:1,2009-07-03T19:06:00Z,28.4330,-82.6670,-0.036,1111122 
COMPS,ioos:station:USF.COMPS:ARP:1,2009-07-03T19:12:00Z,28.4330,-82.6670,-0.05,1111122 
COMPS,ioos:station:USF.COMPS:ARP:1,2009-07-03T19:18:00Z,28.4330,-82.6670,-0.061,1111122 
COMPS,ioos:station:USF.COMPS:ARP:1,2009-07-03T19:24:00Z,28.4330,-82.6670,-0.074,1111122 
COMPS,ioos:station:USF.COMPS:ARP:1,2009-07-03T19:30:00Z,28.4330,-82.6670,-0.089,1111122 
COMPS,ioos:station:USF.COMPS:ARP:1,2009-07-03T19:36:00Z,28.4330,-82.6670,-0.102,1111122 
COMPS,ioos:station:USF.COMPS:ARP:1,2009-07-03T19:42:00Z,28.4330,-82.6670,-0.117,1111122 
COMPS,ioos:station:USF.COMPS:ARP:1,2009-07-03T19:48:00Z,28.4330,-82.6670,-0.127,1111122 
COMPS,ioos:station:USF.COMPS:ARP:1,2009-07-03T19:54:00Z,28.4330,-82.6670,-0.141,1111122 
COMPS,ioos:station:USF.COMPS:ARP:1,2009-07-03T20:00:00Z,28.4330,-82.6670,-0.155,1111122 
COMPS,ioos:station:USF.COMPS:ARP:1,2009-07-03T20:06:00Z,28.4330,-82.6670,-0.168,1111122 
COMPS,ioos:station:USF.COMPS:ARP:1,2009-07-03T20:12:00Z,28.4330,-82.6670,-0.18,1111122 
COMPS,ioos:station:USF.COMPS:ARP:1,2009-07-03T20:18:00Z,28.4330,-82.6670,-0.19,1111122 
COMPS,ioos:station:USF.COMPS:ARP:1,2009-07-03T20:24:00Z,28.4330,-82.6670,-0.205,1111122 
COMPS,ioos:station:USF.COMPS:ARP:1,2009-07-03T20:30:00Z,28.4330,-82.6670,-0.217,1111122 
COMPS,ioos:station:USF.COMPS:ARP:1,2009-07-03T20:36:00Z,28.4330,-82.6670,-0.232,1111122 
COMPS,ioos:station:USF.COMPS:ARP:1,2009-07-03T20:42:00Z,28.4330,-82.6670,-0.242,1111122 
COMPS,ioos:station:USF.COMPS:ARP:1,2009-07-03T20:48:00Z,28.4330,-82.6670,-0.25,1111122 
COMPS,ioos:station:USF.COMPS:ARP:1,2009-07-03T20:54:00Z,28.4330,-82.6670,-0.258,1111122 
COMPS,ioos:station:USF.COMPS:ARP:1,2009-07-03T21:00:00Z,28.4330,-82.6670,-0.268,1111122 
COMPS,ioos:station:USF.COMPS:ARP:1,2009-07-03T21:06:00Z,28.4330,-82.6670,-0.277,1111122 
COMPS,ioos:station:USF.COMPS:ARP:1,2009-07-03T21:12:00Z,28.4330,-82.6670,-0.287,1111122 
COMPS,ioos:station:USF.COMPS:ARP:1,2009-07-03T21:18:00Z,28.4330,-82.6670,-0.296,1111122 
COMPS,ioos:station:USF.COMPS:ARP:1,2009-07-03T21:24:00Z,28.4330,-82.6670,-0.305,1111122 
COMPS,ioos:station:USF.COMPS:ARP:1,2009-07-03T21:30:00Z,28.4330,-82.6670,-0.314,1111122 
COMPS,ioos:station:USF.COMPS:ARP:1,2009-07-03T21:36:00Z,28.4330,-82.6670,-0.322,1111122 
COMPS,ioos:station:USF.COMPS:ARP:1,2009-07-03T21:42:00Z,28.4330,-82.6670,-0.331,1111122 
COMPS,ioos:station:USF.COMPS:ARP:1,2009-07-03T21:48:00Z,28.4330,-82.6670,-0.339,1111122 
COMPS,ioos:station:USF.COMPS:ARP:1,2009-07-03T21:54:00Z,28.4330,-82.6670,-0.347,1111122 
COMPS,ioos:station:USF.COMPS:ARP:1,2009-07-03T22:00:00Z,28.4330,-82.6670,-0.356,1111122 
COMPS,ioos:station:USF.COMPS:ARP:1,2009-07-03T22:06:00Z,28.4330,-82.6670,-0.364,1111122 
COMPS,ioos:station:USF.COMPS:ARP:1,2009-07-03T22:12:00Z,28.4330,-82.6670,-0.373,1111122 
COMPS,ioos:station:USF.COMPS:ARP:1,2009-07-03T22:18:00Z,28.4330,-82.6670,-0.38,1111122 
COMPS,ioos:station:USF.COMPS:ARP:1,2009-07-03T22:24:00Z,28.4330,-82.6670,-0.388,1111122 
COMPS,ioos:station:USF.COMPS:ARP:1,2009-07-03T22:30:00Z,28.4330,-82.6670,-0.395,1111122 
COMPS,ioos:station:USF.COMPS:ARP:1,2009-07-03T22:36:00Z,28.4330,-82.6670,-0.402,1111122 
COMPS,ioos:station:USF.COMPS:ARP:1,2009-07-03T22:42:00Z,28.4330,-82.6670,-0.409,1111122 
COMPS,ioos:station:USF.COMPS:ARP:1,2009-07-03T22:48:00Z,28.4330,-82.6670,-0.416,1111122 
COMPS,ioos:station:USF.COMPS:ARP:1,2009-07-03T22:54:00Z,28.4330,-82.6670,-0.423,1111122 
COMPS,ioos:station:USF.COMPS:ARP:1,2009-07-03T23:00:00Z,28.4330,-82.6670,-0.43,1111122 
COMPS,ioos:station:USF.COMPS:ARP:1,2009-07-03T23:06:00Z,28.4330,-82.6670,-0.436,1111122 
COMPS,ioos:station:USF.COMPS:ARP:1,2009-07-03T23:12:00Z,28.4330,-82.6670,-0.44,1111122 
COMPS,ioos:station:USF.COMPS:ARP:1,2009-07-03T23:18:00Z,28.4330,-82.6670,-0.446,1111122 
COMPS,ioos:station:USF.COMPS:ARP:1,2009-07-03T23:24:00Z,28.4330,-82.6670,-0.449,1111122 
COMPS,ioos:station:USF.COMPS:ARP:1,2009-07-03T23:30:00Z,28.4330,-82.6670,-0.45,1111122 
COMPS,ioos:station:USF.COMPS:ARP:1,2009-07-03T23:36:00Z,28.4330,-82.6670,-0.451,1111122 
COMPS,ioos:station:USF.COMPS:ARP:1,2009-07-03T23:42:00Z,28.4330,-82.6670,-0.45,1111122 
COMPS,ioos:station:USF.COMPS:ARP:1,2009-07-03T23:48:00Z,28.4330,-82.6670,-0.447,1111122 
COMPS,ioos:station:USF.COMPS:ARP:1,2009-07-03T23:54:00Z,28.4330,-82.6670,-0.443,1111122 
COMPS,ioos:station:USF.COMPS:ARP:1,2009-07-04T00:00:00Z,28.4330,-82.6670,-0.437,1111122 
COMPS,ioos:station:USF.COMPS:ARP:1,2009-07-04T00:06:00Z,28.4330,-82.6670,-0.431,1111122 
COMPS,ioos:station:USF.COMPS:ARP:1,2009-07-04T00:12:00Z,28.4330,-82.6670,-0.424,1111122 
COMPS,ioos:station:USF.COMPS:ARP:1,2009-07-04T00:18:00Z,28.4330,-82.6670,-0.417,1111122 
COMPS,ioos:station:USF.COMPS:ARP:1,2009-07-04T00:24:00Z,28.4330,-82.6670,-0.408,1111122 
COMPS,ioos:station:USF.COMPS:ARP:1,2009-07-04T00:30:00Z,28.4330,-82.6670,-0.4,1111122 
COMPS,ioos:station:USF.COMPS:ARP:1,2009-07-04T00:36:00Z,28.4330,-82.6670,-0.391,1111122 
COMPS,ioos:station:USF.COMPS:ARP:1,2009-07-04T00:42:00Z,28.4330,-82.6670,-0.381,1111122 
COMPS,ioos:station:USF.COMPS:ARP:1,2009-07-04T00:48:00Z,28.4330,-82.6670,-0.371,1111122 
COMPS,ioos:station:USF.COMPS:ARP:1,2009-07-04T00:54:00Z,28.4330,-82.6670,-0.36,1111122 
COMPS,ioos:station:USF.COMPS:ARP:1,2009-07-04T11:00:00Z,28.4330,-82.6670,-0.008,1111122 
COMPS,ioos:station:USF.COMPS:ARP:1,2009-07-04T11:06:00Z,28.4330,-82.6670,0.018,1111122 
COMPS,ioos:station:USF.COMPS:ARP:1,2009-07-04T11:12:00Z,28.4330,-82.6670,0.043,1111122 
COMPS,ioos:station:USF.COMPS:ARP:1,2009-07-04T11:18:00Z,28.4330,-82.6670,0.069,1111122 
COMPS,ioos:station:USF.COMPS:ARP:1,2009-07-04T11:24:00Z,28.4330,-82.6670,0.089,1111122 
COMPS,ioos:station:USF.COMPS:ARP:1,2009-07-04T11:30:00Z,28.4330,-82.6670,0.103,1111122 
COMPS,ioos:station:USF.COMPS:ARP:1,2009-07-04T11:36:00Z,28.4330,-82.6670,0.117,1111122 
COMPS,ioos:station:USF.COMPS:ARP:1,2009-07-04T11:42:00Z,28.4330,-82.6670,0.13,1111122 
COMPS,ioos:station:USF.COMPS:ARP:1,2009-07-04T11:48:00Z,28.4330,-82.6670,0.14,1111122 
COMPS,ioos:station:USF.COMPS:ARP:1,2009-07-04T11:54:00Z,28.4330,-82.6670,0.151,1111122 
COMPS,ioos:station:USF.COMPS:ARP:1,2009-07-04T12:00:00Z,28.4330,-82.6670,0.167,1111122 
COMPS,ioos:station:USF.COMPS:ARP:1,2009-07-04T12:06:00Z,28.4330,-82.6670,0.185,1111122 
COMPS,ioos:station:USF.COMPS:ARP:1,2009-07-04T12:12:00Z,28.4330,-82.6670,0.2,1111122 
COMPS,ioos:station:USF.COMPS:ARP:1,2009-07-04T12:18:00Z,28.4330,-82.6670,0.217,1111122 
COMPS,ioos:station:USF.COMPS:ARP:1,2009-07-04T12:24:00Z,28.4330,-82.6670,0.231,1111122 
COMPS,ioos:station:USF.COMPS:ARP:1,2009-07-04T12:30:00Z,28.4330,-82.6670,0.242,1111122 
COMPS,ioos:station:USF.COMPS:ARP:1,2009-07-04T12:36:00Z,28.4330,-82.6670,0.252,1111122 
COMPS,ioos:station:USF.COMPS:ARP:1,2009-07-04T12:42:00Z,28.4330,-82.6670,0.264,1111122 
COMPS,ioos:station:USF.COMPS:ARP:1,2009-07-04T12:48:00Z,28.4330,-82.6670,0.273,1111122 
COMPS,ioos:station:USF.COMPS:ARP:1,2009-07-04T12:54:00Z,28.4330,-82.6670,0.282,1111122 